Hourly Data Report for September 15, 2017

All times are specified in Local Standard Time (LST). Add 1 hour to adjust for Daylight Saving Time where and when it is observed.

FREDERICTON
NEW BRUNSWICK

45°52'08.000" N
66°32'14.000" W
20.70 m
8101505
71700
YFC

Download Data

Hourly Data (September 2017)
Hourly Data Report for September 15, 2017
Temp Definition
°C
Dew Point Temp Definition
°C
Rel Hum Definition
%
Wind Dir Definition
10's deg

Wind Spd Definition
km/h
Visibility Definition
km
Stn Press Definition
kPa
Hmdx Definition


Wind Chill Definition


Weather Definition


TIME
00:00 Legend Double Dagger 15.9 14.8 93 31 17 16.1 101.05     LegendNANA
01:00 Legend Double Dagger 14.4 13.9 97   0 12.9 101.09     LegendNANA
02:00 Legend Double Dagger 14.6 14.1 97 6 5 16.1 101.19     LegendNANA
03:00 Legend Double Dagger 14.7 13.9 95 2 11 16.1 101.26     LegendNANA
04:00 Legend Double Dagger 14.0 11.4 84 3 11 16.1 101.32     LegendNANA
05:00 Legend Double Dagger 12.9 9.0 77 1 8 16.1 101.40     LegendNANA
06:00 Legend Double Dagger 10.7 9.5 92 36 5 16.1 101.51     LegendNANA
07:00 Legend Double Dagger 11.6 9.7 88 36 4 16.1 101.59     LegendNANA
08:00 Legend Double Dagger 14.8 8.7 66 3 8 16.1 101.67     LegendNANA
09:00 Legend Double Dagger 16.5 10.4 67 4 8 11.3 101.73     LegendNANA
10:00 Legend Double Dagger 19.0 11.0 60 6 13 16.1 101.78     LegendNANA
11:00 Legend Double Dagger 21.6 10.0 47 7 11 16.1 101.77     LegendNANA
12:00 Legend Double Dagger 21.9 9.5 45 6 11 16.1 101.73     LegendNANA
13:00 Legend Double Dagger 22.6 10.6 46 5 11 16.1 101.70     LegendNANA
14:00 Legend Double Dagger 23.3 10.9 45 3 9 16.1 101.66 25   LegendNANA
15:00 Legend Double Dagger 24.1 11.8 46 3 8 16.1 101.64 26   LegendNANA
16:00 Legend Double Dagger 24.1 12.5 48 5 8 16.1 101.62 27   LegendNANA
17:00 Legend Double Dagger 23.6 13.7 53 1 5 16.1 101.65 27   LegendNANA
18:00 Legend Double Dagger 22.0 14.6 63 6 8 16.1 101.66 26   LegendNANA
19:00 Legend Double Dagger 19.7 15.0 74   0 16.1 101.68     LegendNANA
20:00 Legend Double Dagger 18.0 14.9 82 LegendMM 4 16.1 101.74     LegendNANA
21:00 Legend Double Dagger 17.3 15.2 87 17 13 16.1 101.72     LegendNANA
22:00 Legend Double Dagger 16.6 15.3 92 16 5 16.1 101.76     LegendNANA
23:00 Legend Double Dagger 15.1 14.5 96 21 5 16.1 101.75     LegendNANA

Notes on Data Quality.

Legend

  • E = Estimated
  • M = Missing
  • NA = Not Available
  • ‡ = Partner data that is not subject to review by the National Climate Archives
Date modified: